SCP
0 0 0 0 0 0 0 0 0 0 0 1 1 1 2 2 2 2 2 2 2 2 2 2 2 2 2 2 3 2 2 2 2 2 2 2 2 2 2 1 1 1 1 1
0 0 0 0 0 0 0 0 0 0 0 1 1 1 2 2 2 2 2 2 2 2 2 2 2 2 2 3 3 3 3 2 2 2 2 2 2 2 2 2 1 1 2 2
0 0 0 0 0 0 1 1 0 0 1 1 1 2 2 2 2 2 2 2 2 2 3 2 2 2 3 4 4 4 4 3 2 2 2 2 2 2 2 2 2 2 2 2
0 0 0 0 0 0 0 0 0 1 1 2 2 2 2 2 3 3 3 3 3 3 3 3 3 3 4 4 4 5 5 4 3 2 2 3 3 3 3 3 3 2 3 3
0 0 0 0 0 1 1 1 1 1 2 2 2 2 2 2 3 3 4 3 3 3 4 5 5 5 4 4 4 4 4 3 3 3 3 3 3 3 2 2 2 2 2 2
0 0 0 0 1 1 1 1 1 2 2 2 2 2 2 3 3 4 4 4 4 4 5 5 5 4 4 3 3 3 3 3 3 3 3 3 2 2 2 2 1 1 1 1
0 0 0 1 1 1 1 1 2 2 2 2 2 2 3 3 4 4 4 4 4 5 5 5 4 4 3 3 3 3 3 2 2 2 2 2 2 1 1 1 1 1 1 0
0 0 0 1 1 1 1 1 2 2 2 2 2 3 3 4 3 4 4 4 5 5 5 4 4 3 3 2 2 2 2 2 1 1 1 1 1 1 1 1 1 0 0 0
0 0 1 1 1 1 1 1 1 1 2 2 2 3 3 3 3 4 4 5 5 5 4 4 3 2 2 1 1 1 1 1 1 1 1 1 1 1 0 0 0 0 1 1
0 0 0 0 0 1 1 1 1 1 1 2 2 2 3 3 4 4 4 4 4 3 2 2 1 1 1 1 1 1 1 1 1 1 1 1 0 0 0 0 0 0 0 1
0 0 0 0 0 1 1 1 1 1 1 1 2 2 2 3 3 3 3 2 2 1 1 0 0 0 0 0 0 1 1 1 1 0 0 0 0 0 0 0 0 0 0 0
0 0 0 0 1 1 1 1 1 1 1 1 1 1 1 2 2 1 1 1 0 0 0 0 0 0 0 0 0 0 0 0 0 0 0 0 0 0 0 0 0 0 0 0
0 0 0 0 0 1 1 1 1 1 1 1 1 1 1 1 1 0 0 0 0 0 0 0 0 0 0 0 0 0 0 0 0 0 0 0 0 0 0 0 0 0 0 0
0 0 0 0 0 0 1 1 1 1 0 0 0 0 0 0 0 0 0 0 0 0 0 0 0 0 0 0 0 0 0 0 0 0 0 0 0 0 0 0 0 0 0 0
0 0 0 0 0 0 0 0 0 0 0 0 0 0 0 0 0 0 0 0 0 0 0 0 0 0 0 0 0 0 0 0 0 0 0 0 0 0 0 0 0 0 0 0
0 0 0 0 0 0 0 0 0 0 0 0 0 0 0 0 0 0 0 0 0 0 0 0 0 0 0 0 0 0 0 0 0 0 0 0 0 0 0 0 0 0 0 0
0 0 0 0 0 0 0 0 0 0 0 0 0 0 0 0 0 0 0 0 0 0 0 0 0 0 0 0 0 0 0 0 0 0 0 0 0 0 0 0 0 0 0 0
0 0 0 0 0 0 0 0 0 0 0 0 0 0 0 0 0 0 0 0 0 0 0 0 0 0 0 0 0 0 0 0 0 0 0 0 0 0 0 0 0 0 0 0
0 0 0 0 0 0 0 0 0 0 0 0 0 0 0 0 0 0 0 0 0 0 0 0 0 0 0 0 0 0 0 0 0 0 0 0 0 0 0 0 0 0 0 0
0 0 0 0 0 0 0 0 0 0 0 0 0 0 0 0 0 0 0 0 0 0 0 0 0 0 0 0 0 0 0 0 0 0 0 0 0 0 0 0 0 0 0 0
0 0 0 0 0 0 0 0 0 0 0 0 0 0 0 0 0 0 0 0 0 0 0 0 0 0 0 0 0 0 0 0 0 0 0 0 0 0 0 0 0 0 0 0
0 0 0 0 0 0 0 0 0 0 0 0 0 0 0 0 0 0 0 0 0 0 0 0 0 0 0 0 0 0 0 0 0 0 0 0 0 0 0 0 0 0 0 0
0 0 0 0 0 0 0 0 0 0 0 0 0 0 0 0 0 0 0 0 0 0 0 0 0 0 0 0 0 0 0 0 0 0 0 0 0 0 0 0 0 0 0 0
0 0 0 0 0 0 0 0 0 0 0 0 0 0 0 0 0 0 0 0 0 0 0 0 0 0 0 0 0 0 0 0 0 0 0 0 0 0 0 0 0 0 0 0
0 0 0 0 0 0 0 0 0 0 0 0 0 0 0 0 0 0 0 0 0 0 0 0 0 0 0 0 0 0 0 0 0 0 0 0 0 0 0 0 0 0 0 0
0 0 0 0 0 0 0 0 0 0 0 0 0 0 0 0 0 0 0 0 0 0 0 0 0 0 0 0 0 0 0 0 0 0 0 0 0 0 0 0 0 0 0 0
0 0 0 0 0 0 0 0 0 0 0 0 0 0 0 0 0 0 0 0 0 0 0 0 0 0 0 0 0 0 0 0 0 0 0 0 0 0 0 0 0 0 0 0
Wind_Speed
11 9 9 11 11 11 14 15 15 13 12 8 4 6 8 10 12 12 12 12 12 11 10 10 10 10 10 10 11 11 11 10 10 9 9 8 7 7 6 5 5 5 4 4
12 12 12 14 14 15 16 16 16 16 14 7 2 5 8 11 13 13 13 13 12 11 11 10 10 10 10 9 10 10 10 10 10 9 9 8 7 6 5 5 4 3 3 2
13 12 13 17 17 18 18 17 16 17 13 5 5 6 8 10 12 12 12 12 12 11 10 10 9 9 9 9 9 9 9 9 9 9 8 7 7 6 6 5 4 4 3 3
11 11 17 11 6 10 15 17 16 15 10 5 4 4 4 6 9 10 11 11 11 10 10 10 10 10 9 9 9 9 9 8 8 8 8 8 7 6 6 5 5 4 4 4
10 14 14 12 8 8 12 14 11 12 9 4 4 5 6 6 6 8 9 9 9 9 9 9 10 10 11 10 10 10 9 8 8 8 8 8 8 7 7 6 7 6 7 7
10 12 12 6 2 4 9 12 4 5 5 5 8 8 6 8 8 9 9 9 10 10 11 10 10 11 12 11 11 10 9 9 8 8 9 9 9 8 8 8 8 8 9 8
13 13 10 4 5 4 10 3 7 5 3 5 7 1 10 12 11 10 11 11 12 12 11 11 11 12 12 12 11 11 11 11 11 10 10 10 10 9 9 8 8 8 8 8
9 12 9 4 4 5 6 8 7 5 3 1 5 10 13 13 12 12 12 13 13 13 12 11 12 14 15 14 12 12 12 12 12 11 9 10 10 9 8 8 8 7 7 6
7 6 4 4 5 7 9 9 7 4 1 6 10 11 13 13 13 13 13 13 13 15 14 12 12 14 15 13 12 13 13 13 12 11 10 9 9 9 7 5 5 5 4 4
9 9 9 10 9 8 7 7 5 1 5 9 12 14 14 13 13 14 14 13 13 15 15 14 13 13 14 13 13 13 13 12 10 10 10 9 6 6 6 5 5 4 4 3
11 10 9 8 7 7 4 2 1 4 7 10 14 16 15 14 14 13 13 13 13 14 15 15 13 13 12 11 12 13 12 10 10 10 10 9 9 9 8 9 7 5 4 4
7 6 6 6 6 4 1 2 5 8 10 12 14 16 16 14 13 13 13 13 14 14 14 14 13 12 11 10 10 10 10 8 7 7 7 7 8 9 14 11 12 13 12 8
7 7 6 6 3 2 3 6 9 11 13 14 15 16 17 15 14 13 13 14 13 13 13 13 12 11 10 9 9 9 8 7 6 6 6 6 6 6 7 8 9 11 11 10
5 4 3 1 2 5 9 11 13 14 15 16 16 16 16 16 15 15 14 13 12 12 12 11 11 11 9 9 9 9 8 7 5 5 5 5 4 4 4 4 5 6 7 7
3 1 1 5 8 9 11 13 15 16 17 17 16 16 15 15 15 14 13 12 12 12 11 11 11 10 8 8 9 8 6 5 5 5 4 4 4 3 3 3 3 3 3 5
3 5 7 8 10 10 12 15 16 17 17 17 16 15 15 14 14 13 12 11 11 11 10 10 10 8 8 8 8 7 7 7 4 4 4 4 3 3 3 3 3 3 3 4
5 8 9 11 12 13 13 14 16 17 17 17 16 16 15 15 14 13 11 11 11 10 9 9 9 8 7 7 6 5 6 6 4 3 4 4 4 4 4 3 3 3 4 5
7 9 10 12 13 14 14 15 16 16 16 17 16 15 15 14 13 12 12 12 11 11 9 9 8 8 7 7 5 4 4 4 4 4 5 4 4 4 3 3 2 2 2 3
11 13 14 14 14 14 15 15 15 15 15 15 14 14 13 13 12 12 11 11 11 10 8 8 7 7 8 7 4 4 4 5 5 5 5 4 2 3 3 3 3 3 4 4
14 14 15 15 15 15 15 15 15 14 14 14 14 14 13 12 11 11 10 9 7 7 8 7 6 6 7 5 1 4 4 5 5 5 4 3 3 3 3 3 4 4 4 4
15 15 15 15 15 15 15 14 14 14 13 13 13 13 12 11 10 9 9 9 8 7 7 6 4 5 5 4 1 4 5 4 4 4 4 3 3 3 4 4 4 4 4 4
13 14 15 14 14 13 12 12 13 13 13 12 12 12 11 10 9 8 8 7 7 4 4 5 6 7 4 2 4 5 5 5 4 4 3 3 3 3 3 3 3 4 4 4
12 13 13 13 13 13 12 12 12 11 11 10 10 10 9 8 7 7 7 6 6 4 4 7 8 6 0 2 4 5 5 5 4 4 3 3 3 3 3 3 3 3 4 4
12 12 12 12 12 12 12 11 11 10 10 10 9 8 8 7 6 6 8 8 7 6 7 8 6 3 1 4 5 5 5 4 3 3 3 3 2 2 2 2 3 3 4 5
11 11 11 10 10 9 10 11 11 10 10 8 9 8 6 6 7 8 8 9 8 7 8 8 5 2 2 5 5 4 4 4 3 3 3 2 2 2 2 2 3 3 4 4
9 8 8 8 7 7 7 7 7 6 7 7 7 6 7 7 8 8 7 9 9 7 7 7 6 4 4 5 4 4 4 4 3 2 3 2 2 2 2 3 3 3 4 4
9 8 7 7 7 6 6 6 6 6 6 6 7 7 7 7 7 7 8 7 7 6 6 5 5 4 4 4 4 3 3 2 2 2 1 1 1 1 2 2 3 3 4 4
Wind_Direction
271 282 274 264 253 239 239 253 265 271 273 274 232 205 184 171 167 165 164 166 166 166 166 168 169 170 173 174 171 170 169 169 172 171 169 172 173 178 180 186 193 194 201 211
261 260 263 262 257 251 248 251 257 265 268 276 246 191 181 179 175 172 170 168 166 165 165 168 168 167 168 170 169 168 169 169 165 162 163 165 166 169 170 176 182 176 183 181
261 259 262 253 249 250 250 249 252 257 262 238 216 196 187 182 180 176 172 167 165 163 162 161 162 161 161 159 156 157 158 156 153 155 155 155 159 158 157 153 144 138 135 123
263 259 251 259 278 271 266 262 258 260 267 252 233 186 176 181 180 172 165 161 158 155 151 151 151 150 147 146 146 144 143 144 144 145 144 142 138 134 129 123 120 115 109 102
255 252 256 259 261 268 269 265 264 262 256 220 154 157 165 161 162 157 151 143 139 140 141 141 141 139 136 135 135 133 134 135 136 136 133 128 123 120 115 111 103 97 88 85
245 254 258 266 334 311 276 258 296 292 257 203 190 215 159 138 135 129 127 126 126 127 126 125 129 132 131 129 126 125 123 121 120 120 119 117 114 111 107 105 102 97 87 80
246 250 256 304 336 277 249 299 11 341 292 225 220 310 116 126 122 120 118 118 118 117 114 114 119 121 117 113 110 110 109 107 104 104 106 106 103 102 103 102 98 94 92 85
240 245 248 17 308 280 329 343 335 328 306 191 107 109 120 120 120 119 117 115 112 107 103 106 111 110 105 101 103 104 103 99 98 99 99 101 100 98 97 103 106 101 96 89
256 266 340 343 310 310 308 305 309 306 139 134 131 130 124 120 118 115 112 109 107 106 101 98 100 104 105 106 108 106 102 99 98 96 93 97 101 102 102 99 96 95 93 88
263 265 281 290 291 290 290 291 292 212 153 142 137 130 124 120 115 112 109 108 108 106 102 97 94 96 101 107 108 106 104 102 102 100 97 89 86 87 84 79 82 86 79 75
258 272 284 286 300 302 301 312 98 124 135 136 133 128 122 116 112 109 106 104 102 101 101 100 98 97 99 104 107 106 105 105 103 98 94 88 74 54 63 58 47 45 55 53
276 299 296 305 324 329 348 105 109 111 111 115 121 121 117 110 107 105 104 103 102 102 101 101 100 97 97 101 104 107 107 106 106 106 105 106 105 90 59 68 71 64 51 44
285 296 296 297 320 4 94 104 107 109 111 111 110 110 109 106 104 103 101 101 102 103 103 103 101 98 96 96 97 96 99 100 103 106 111 112 113 115 116 101 87 81 73 65
294 287 277 271 105 100 105 107 108 106 105 106 107 108 108 107 106 104 104 105 105 103 102 102 100 96 97 99 99 99 99 95 98 100 100 100 100 102 105 114 124 113 104 99
328 318 119 106 104 106 111 112 110 109 110 109 111 111 111 111 110 110 112 112 111 109 108 106 103 100 101 103 102 99 97 98 94 96 98 96 96 94 87 81 77 83 103 125
83 100 109 107 107 111 115 116 114 115 116 115 114 113 113 112 113 114 116 117 114 109 108 107 103 102 102 102 104 101 91 75 81 100 100 98 89 78 74 70 67 61 48 33
116 112 111 110 110 110 112 116 117 118 118 117 117 118 117 116 113 112 112 110 107 107 106 103 101 101 101 104 105 104 105 106 109 100 87 81 78 72 66 58 53 45 53 55
103 107 108 111 114 113 114 114 115 117 119 121 123 123 123 121 119 118 118 116 109 100 95 97 102 104 99 94 89 92 102 106 102 91 89 79 74 75 69 66 55 33 34 94
109 109 110 110 112 113 114 115 115 116 119 122 121 120 121 122 122 122 121 118 115 109 103 101 104 109 101 90 90 105 100 100 96 91 92 98 96 80 70 60 48 36 23 14
106 107 107 107 107 110 112 115 116 117 119 120 120 119 118 118 120 119 116 108 99 103 112 113 119 107 106 97 60 101 97 96 99 104 101 94 80 72 62 54 45 32 21 13
106 106 105 105 106 106 110 113 115 116 119 121 120 120 119 120 123 124 122 111 102 103 110 117 111 105 102 105 135 100 100 97 97 91 89 83 74 62 53 45 39 28 19 9
106 105 105 104 104 103 105 110 115 118 120 121 122 123 124 125 123 114 103 105 115 124 133 116 99 82 80 122 108 99 98 96 94 90 82 74 66 58 54 44 34 26 17 8
105 105 105 106 106 108 110 112 114 116 118 120 124 127 126 123 126 126 120 115 122 126 111 94 96 101 100 125 99 99 97 93 86 85 83 75 66 58 50 42 35 21 13 4
109 109 109 110 110 109 107 107 109 110 113 114 115 117 120 122 116 107 106 108 106 116 104 101 111 122 227 110 100 98 97 96 93 87 83 78 73 62 47 30 20 16 12 3
109 111 113 116 113 109 110 112 112 115 115 112 114 116 115 109 112 112 115 120 127 127 116 120 138 200 156 103 103 100 98 79 60 52 74 67 56 51 34 21 12 3 2 359
109 106 101 99 101 110 115 115 113 115 117 115 110 107 107 109 114 118 121 125 126 125 127 135 143 171 124 112 110 107 105 117 126 105 67 54 47 32 23 11 2 353 352 354
111 109 109 107 105 102 104 107 110 110 110 113 112 110 110 114 118 121 125 130 136 134 128 129 131 130 120 116 112 112 109 108 96 80 81 57 25 7 7 348 342 342 335 340